STARLINK-1653, 46352

Orbit data source: Space-Track

STARLINK-1653, 46352 is a payload satellite owned by SpaceX/Seattle (US) in LEO that was launched on Thu, 03 Sep 2020 UTC via an FALCON 9 launch vehicle from the Air Force Eastern Test Range (AFETR). Payload-class satellites include a variety of spacecraft equipped with specific instruments for various scientific and technological missions. These include communications satellites like Starlink; space stations such as the ISS; scientific satellites like the Hubble; Earth observation satellites from companies like Planet Labs, Umbra, and HawkEye 360; GPS; miniature CubeSats for education and research; and military/defense satellites.

Loading next visibility...
Identifier
46352, 2020-062AD
Orbit
LEO
Country
Flag of USUS
Related business
Manufacturer
SpaceX/Seattle
Mission
Partially operational Commercial Communications
Bus & Motor
STARLINK, Unknown motor
Mass
260 kg wet, ~248 kg dry
Launch date (UTC)
2020-09-03 (5 years ago)
Launch vehicle
FALCON 9
Launch site
Air Force Eastern Test Range (AFETR)
Object type
Payload
Rocket body
Debris
Shape & HBR
Box + 1 Pan, 10.1 m
Radar Cross Section
13.562 m², Large (>1 m²)

Expand to show TLE details & history
Last TLE update: 2 days ago

TLE from 2 days ago
0 STARLINK-1653
1 46352U 20062AD  25340.28228404  .00030156  00000-0  90458-3 0  9998
2 46352  53.0521  47.7373 0006116 350.2061   9.8820 15.34224921290630
Epoch: 2025-12-06T06:46Z
TLE epoch observation values (Epoch: 2025-12-06T06:46:29.341Z)
Latitude
0.00001°
Longitude
-129.19721°
Altitude
459.991 km
Speed
7.64 km/s
True Right ascension
03h 10m 56s
True Declination
0° 00' 00"
Sunlit
Object was in full shadow at epoch
Visualization orbit readout
Latitude
Unknown
Longitude
Unknown
Altitude
Unknown
Speed
Unknown
Apparent Right ascension
Unknown
Apparent Declination
Unknown
Sunlit
N/A
Visualization observer readout
Local Sidereal Time
18:07:46
Azimuth
Unknown
Elevation
Unknown
Doppler factor
Unknown
Orbital elements
Apogee altitude
467.682 km
Perigee altitude
459.314 km
Semi-major axis
6,841.635 km
Eccentricity
0.00061
Inclination
53.0521°
RAAN
47.7373°
Arg. of periapsis
350.2061°
True anomaly
9.89404°
Mean anomaly
9.882°
Eccentric anomaly
9.88802°
Mean motion
3.83534 °/min
Orbital period
93.86 mins
BSTAR
0.00090458
Loading maneuver chart data...
Computing Atmospheric mass density...

Documentation

Showing up to 5 results
|